W1JCN Weather Reports


time (UTC)temp
C
wind
direction
speed
KPH
gust
KPH
rain 1hr
cm
rain 24hr
cm
rain mn
cm
humidity
%
barometer
mb
20260506222408 13 185 1.6 6.4 0.00 0.10 0.10 94 1002.0
20260506221507 13 216 1.6 12.9 0.00 0.10 0.10 94 1002.0
20260506220607 13 177 1.6 8.0 0.00 0.10 0.10 94 1002.0
20260506215707 13 183 0.0 8.0 0.00 0.10 0.10 94 1002.1
20260506214807 13 198 0.0 6.4 0.00 0.10 0.10 95 1002.0
20260506212107 13 168 1.6 11.3 0.00 0.10 0.10 94 1002.1
20260506211207 13 179 0.0 6.4 0.00 0.10 0.10 94 1002.1
20260506204507 13 183 0.0 6.4 0.00 0.10 0.10 94 1002.3
20260506203607 13 174 1.6 16.1 0.00 0.10 0.10 94 1002.2
20260506202707 13 182 1.6 11.3 0.00 0.10 0.10 94 1002.3
20260506201807 13 174 1.6 12.9 0.00 0.10 0.10 94 1002.3
20260506200907 13 193 1.6 8.0 0.00 0.10 0.10 94 1002.3
20260506200007 13 178 3.2 17.7 0.00 0.10 0.10 94 1002.3
20260506195107 13 174 1.6 11.3 0.03 0.10 0.10 94 1002.4
20260506194207 13 171 1.6 16.1 0.03 0.10 0.10 94 1002.4
20260506193307 13 169 1.6 17.7 0.05 0.10 0.10 94 1002.7
20260506192407 13 169 3.2 17.7 0.05 0.10 0.10 94 1002.7
20260506190607 13 165 0.0 8.0 0.08 0.10 0.10 94 1002.8
20260506185707 13 173 1.6 9.7 0.08 0.10 0.10 94 1003.1
20260506183907 13 131 0.0 4.8 0.08 0.08 0.08 94 1003.2
20260506183007 13 179 1.6 14.5 0.05 0.05 0.05 94 1003.2
20260506182107 13 188 1.6 6.4 0.05 0.05 0.05 94 1003.6
20260506181207 13 168 1.6 6.4 0.05 0.05 0.05 94 1003.7
20260506180307 13 179 1.6 6.4 0.03 0.03 0.03 94 1003.7
20260506175407 13 183 1.6 8.0 0.03 0.03 0.03 94 1004.3
20260506174507 13 178 1.6 8.0 0.00 0.00 0.00 93 1004.4
20260506173607 13 194 0.0 6.4 0.00 0.00 0.00 93 1004.6
20260506172707 13 224 1.6 6.4 0.00 0.00 0.00 93 1004.6
20260506171807 13 192 1.6 6.4 0.00 0.00 0.00 93 1004.6
20260506170907 13 179 1.6 8.0 0.00 0.00 0.00 92 1004.6
20260506170007 14 181 0.0 6.4 0.00 0.00 0.00 92 1004.6
20260506165107 14 172 1.6 9.7 0.00 0.00 0.00 91 1004.7
20260506164207 14 170 1.6 8.0 0.00 0.00 0.00 91 1004.7
20260506162407 15 205 1.6 8.0 0.00 0.00 0.00 90 1004.8
20260506161507 15 205 1.6 12.9 0.00 0.00 0.00 89 1004.8
20260506155707 15 170 1.6 9.7 0.00 0.00 0.00 88 1005.0
20260506154807 15 168 1.6 9.7 0.00 0.00 0.00 89 1005.2
20260506153907 15 164 1.6 9.7 0.00 0.00 0.00 88 1005.4
20260506153006 15 189 1.6 6.4 0.00 0.00 0.00 88 1005.4
20260506152107 15 177 3.2 9.7 0.00 0.00 0.00 87 1005.7
20260506150307 15 211 1.6 6.4 0.00 0.00 0.00 86 1005.9
20260506144507 15 182 1.6 11.3 0.00 0.00 0.00 85 1005.9
20260506141806 15 189 1.6 9.7 0.00 0.00 0.00 86 1005.8
20260506140907 15 174 1.6 9.7 0.00 0.00 0.00 88 1005.9
20260506140006 14 195 0.0 4.8 0.00 0.00 0.00 88 1005.8
20260506135107 13 189 1.6 9.7 0.00 0.00 0.00 89 1005.8
20260506134207 13 153 1.6 9.7 0.00 0.00 0.00 89 1005.8
20260506133306 13 185 1.6 8.0 0.00 0.00 0.00 89 1005.8
20260506131507 13 145 1.6 9.7 0.00 0.00 0.00 89 1006.1
20260506130606 13 178 1.6 6.4 0.00 0.00 0.00 89 1006.1
20260506125706 13 191 1.6 8.0 0.00 0.00 0.00 89 1006.4
20260506124806 13 198 1.6 8.0 0.00 0.00 0.00 89 1006.4
20260506123906 13 187 1.6 8.0 0.00 0.00 0.00 89 1006.4
20260506123006 13 185 1.6 6.4 0.00 0.00 0.00 90 1006.1
20260506122106 13 186 1.6 8.0 0.00 0.00 0.00 90 1006.0
20260506121206 12 181 1.6 14.5 0.00 0.00 0.00 90 1005.7
20260506120306 12 177 1.6 9.7 0.00 0.00 0.00 90 1006.0
20260506115406 12 189 1.6 8.0 0.00 0.00 0.00 91 1006.1
20260506114506 12 185 1.6 8.0 0.00 0.00 0.00 91 1006.2
20260506113606 12 183 1.6 16.1 0.00 0.00 0.00 91 1006.2
20260506111806 12 195 1.6 12.9 0.00 0.00 0.00 92 1006.2
20260506110906 11 193 1.6 8.0 0.00 0.00 0.00 93 1006.4
20260506110006 11 181 0.0 8.0 0.00 0.00 0.00 93 1006.2
20260506105106 11 175 0.0 6.4 0.00 0.00 0.00 93 1006.1
20260506104206 10 181 0.0 6.4 0.00 0.00 0.00 93 1006.2
20260506103306 10 178 0.0 3.2 0.00 0.00 0.00 93 1006.3
20260506102406 10 178 0.0 6.4 0.00 0.00 0.00 93 1006.2
20260506101506 10 178 0.0 3.2 0.00 0.00 0.00 93 1006.4
20260506100606 10 178 0.0 4.8 0.00 0.00 0.00 93 1006.2
20260506094806 10 171 0.0 1.6 0.00 0.00 0.00 91 1006.1
20260506092106 10 0 0.0 0.0 0.00 0.00 0.00 91 1006.0
20260506090306 10 0 0.0 0.0 0.00 0.00 0.00 90 1006.2
20260506085406 10 0 0.0 0.0 0.00 0.00 0.00 90 1006.2
20260506084506 10 0 0.0 0.0 0.00 0.00 0.00 90 1006.2
20260506083606 10 171 0.0 3.2 0.00 0.00 0.00 90 1006.4
20260506082706 10 171 0.0 1.6 0.00 0.00 0.00 90 1006.3
20260506081806 10 0 0.0 0.0 0.00 0.00 0.00 89 1006.5
20260506073306 11 0 0.0 0.0 0.00 0.00 0.00 88 1006.8
20260506072406 11 0 0.0 0.0 0.00 0.00 0.00 87 1006.9
20260506071506 11 0 0.0 0.0 0.00 0.00 0.00 87 1006.8
20260506061206 12 171 0.0 1.6 0.00 0.00 0.00 85 1006.6
20260506050905 14 174 0.0 3.2 0.00 0.00 0.00 83 1006.7
20260506045106 14 176 0.0 3.2 0.00 0.00 0.00 84 1006.9
20260506044205 14 174 0.0 3.2 0.00 0.00 0.00 85 1006.8
20260506042405 13 181 0.0 4.8 0.00 0.00 0.00 86 1006.6
20260506040605 14 196 0.0 6.4 0.00 0.00 0.00 86 1006.3
20260506035705 14 200 0.0 3.2 0.00 0.00 0.00 87 1006.7
20260506034805 14 0 0.0 0.0 0.00 0.00 0.00 88 1006.5
20260506033006 13 0 0.0 0.0 0.00 0.00 0.00 90 1006.7
20260506032105 13 200 0.0 4.8 0.00 0.00 0.00 90 1006.8
20260506030305 13 212 0.0 1.6 0.00 0.00 0.00 91 1006.7
20260506025405 13 0 0.0 0.0 0.00 0.00 0.00 91 1006.4
20260506024505 13 222 0.0 4.8 0.00 0.00 0.00 91 1006.8
20260506023605 13 0 0.0 0.0 0.00 0.00 0.00 91 1006.6
20260506022705 13 0 0.0 0.0 0.00 0.00 0.00 91 1006.7
20260506021805 13 0 0.0 0.0 0.00 0.00 0.00 91 1006.7
20260506020005 13 0 0.0 0.0 0.00 0.00 0.00 90 1006.6
20260506015105 13 0 0.0 0.0 0.00 0.00 0.00 89 1006.6
20260506013305 14 0 0.0 0.0 0.00 0.00 0.00 88 1006.2
20260506012405 15 0 0.0 0.0 0.00 0.00 0.00 87 1006.2
20260506011505 15 0 0.0 0.0 0.00 0.00 0.00 86 1006.0
20260506010605 15 0 0.0 0.0 0.00 0.00 0.00 83 1005.8
20260506005705 15 0 0.0 0.0 0.00 0.00 0.00 81 1006.1
20260506004805 16 0 0.0 0.0 0.00 0.00 0.00 80 1006.0
20260506003905 16 0 0.0 0.0 0.00 0.00 0.00 79 1006.2
20260506003005 16 0 0.0 0.0 0.00 0.00 0.00 78 1006.0
20260506002105 16 0 0.0 0.0 0.00 0.00 0.00 77 1006.0